TimeCST,TemperatureF,Dew PointF,Humidity,Sea Level PressureIn,VisibilityMPH,Wind Direction,Wind SpeedMPH,Gust SpeedMPH,PrecipitationIn,Events,Conditions,WindDirDegrees,DateUTC
12:53 AM,18.0,14.0,84,30.33,5.0,Calm,Calm,-,N/A,,Clear,0,2013-01-02 06:53:00
1:53 AM,17.1,12.9,84,30.32,5.0,Calm,Calm,-,N/A,,Clear,0,2013-01-02 07:53:00
2:53 AM,17.1,14.0,88,30.32,6.0,Calm,Calm,-,N/A,,Clear,0,2013-01-02 08:53:00
3:53 AM,14.0,10.9,88,30.31,6.0,Calm,Calm,-,N/A,,Clear,0,2013-01-02 09:53:00
4:53 AM,12.9,10.0,88,30.30,6.0,Calm,Calm,-,N/A,,Clear,0,2013-01-02 10:53:00
5:53 AM,17.6,14.0,86,30.24,5.0,Calm,Calm,-,N/A,,Clear,0,2013-01-02 11:53:00
6:53 AM,17.1,14.0,88,30.28,5.0,Calm,Calm,-,N/A,,Clear,0,2013-01-02 12:53:00
7:53 AM,14.0,10.0,84,30.29,4.0,Calm,Calm,-,N/A,,Clear,0,2013-01-02 13:53:00
8:14 AM,15.8,12.2,86,30.25,3.0,Calm,Calm,-,N/A,,Scattered Clouds,0,2013-01-02 14:14:00
8:53 AM,21.9,19.0,89,30.29,4.0,South,4.6,-,N/A,,Clear,190,2013-01-02 14:53:00
9:53 AM,26.1,21.9,84,30.29,6.0,SSW,5.8,-,N/A,,Clear,210,2013-01-02 15:53:00
10:53 AM,30.0,24.1,79,30.29,8.0,SSW,11.5,-,N/A,,Clear,210,2013-01-02 16:53:00
11:53 AM,33.1,26.1,75,30.27,10.0,SW,11.5,-,N/A,,Clear,220,2013-01-02 17:53:00
12:53 PM,35.1,25.0,67,30.23,10.0,West,11.5,-,N/A,,Clear,260,2013-01-02 18:53:00
1:53 PM,37.0,24.1,59,30.20,10.0,WSW,10.4,-,N/A,,Clear,240,2013-01-02 19:53:00
2:53 PM,37.9,25.0,60,30.20,10.0,West,8.1,-,N/A,,Clear,260,2013-01-02 20:53:00
3:53 PM,37.9,25.0,60,30.23,10.0,WNW,10.4,-,N/A,,Clear,290,2013-01-02 21:53:00
4:53 PM,37.0,26.1,65,30.23,10.0,West,3.5,-,N/A,,Scattered Clouds,280,2013-01-02 22:53:00
5:53 PM,35.1,26.1,70,30.26,10.0,NW,5.8,-,N/A,,Clear,310,2013-01-02 23:53:00
6:53 PM,32.0,25.0,75,30.28,10.0,NNW,5.8,-,N/A,,Clear,330,2013-01-03 00:53:00
7:53 PM,28.9,24.1,82,30.31,10.0,WNW,3.5,-,N/A,,Clear,290,2013-01-03 01:53:00
8:53 PM,28.9,24.1,82,30.32,10.0,Calm,Calm,-,N/A,,Clear,0,2013-01-03 02:53:00
9:53 PM,23.0,19.9,88,30.34,10.0,Calm,Calm,-,N/A,,Clear,0,2013-01-03 03:53:00
10:53 PM,25.0,21.0,85,30.34,10.0,Calm,Calm,-,N/A,,Clear,0,2013-01-03 04:53:00
11:53 PM,24.1,21.9,91,30.33,8.0,Calm,Calm,-,N/A,,Clear,0,2013-01-03 05:53:00